Regional Weather Roundup
Issued by NWS San Angelo, TX

Home | Current Version | Previous Version | Text Only | Print | Product List | Glossary On
Versions: 1 2 3 4 5 6 7 8 9 10 11 12 13 14 15 16 17 18 19 20 21 22 23 24 25 26 27 28 29 30 31 32 33 34 35 36 37 38 39 40 41 42 43 44 45 46 47 48 49 50
000
ASUS44 KSJT 041610
RWRSJT
WEST CENTRAL TEXAS REGIONAL WEATHER ROUNDUP
NATIONAL WEATHER SERVICE SAN ANGELO TX
1000 AM CST WED MAR 04 2015

NOTE: "FAIR" INDICATES FEW OR NO CLOUDS BELOW 12,000 FEET WITH NO
SIGNIFICANT WEATHER AND/OR OBSTRUCTIONS TO VISIBILITY.

TXZ049-054-064>066-071>073-076>078-098-099-113-114-127-128-139-140-
154-155-168>170-041700
...LOCATIONS ACROSS WEST CENTRAL TEXAS...

CITY           SKY/WX    TMP DP  RH WIND       PRES   REMARKS
SAN ANGELO     CLOUDY    56  51  84 CALM      29.90R
ABILENE        LGT RAIN  44  42  93 N22       29.99R FOG     WCI  35
DYESS AFB      NOT AVBL
JUNCTION       FOG       56  55  97 CALM      29.88R VSB 1/2
SWEETWATER     NOT AVBL
BROWNWOOD      LGT RAIN  55  55 100 N6        29.93R
COLEMAN        DRIZZLE   53  53 100 N8        29.93S
SONORA         NOT AVBL
OZONA          NOT AVBL
BRADY          LGT RAIN  55  55 100 NE8       29.88F VSB 1/2
$$

TEXAS PANHANDLE/OKLAHOMA PANHANDLE

CITY           SKY/WX    TMP DP  RH WIND       PRES   REMARKS
AMARILLO       CLOUDY    20  19  96 NE22      30.14R FOG     WCI   3
BORGER         LGT SNOW  22  19  89 NE17      30.20R FOG     WCI   8
CANADIAN       CLOUDY    23  20  89 N14G21    30.23R WCI  10
DALHART        CLOUDY    21  17  84 NE22G28   30.14R WCI   5
DUMAS          CLOUDY    19  15  86 NE15G23   30.15R FOG     WCI   5
GUYMON         NOT AVBL
HEREFORD       NOT AVBL
PAMPA          NOT AVBL
PERRYTON       NOT AVBL
$$

SOUTHERN PANHANDLE/SOUTH PLAINS/ROLLING PLAINS

CITY           SKY/WX    TMP DP  RH WIND       PRES   REMARKS
LUBBOCK        FRZ RAIN  31  30  96 NE20G25   30.04R FOG     WCI  19
SNYDER         NOT AVBL
CHILDRESS      LGT SNOW  28  26  92 N18       30.16R VSB 3/4 WCI  15
SEMINOLE       LGT RAIN  49  45  87 N5        29.96R
$$

PERMIAN BASIN

CITY           SKY/WX    TMP DP  RH WIND       PRES   REMARKS
MIDLAND        CLOUDY    53  48  83 N13       29.93R
ODESSA         CLOUDY    54  43  66 N13       29.94R
WINK           CLOUDY    55  43  63 N8        29.93R
$$

FAR WEST/SOUTHWEST MOUNTAINS/TRANS PECOS

CITY           SKY/WX    TMP DP  RH WIND       PRES   REMARKS
ALPINE         CLOUDY    52  46  79 CALM      30.02R
DRYDEN           N/A     53  51  93 N3        29.89R
EL PASO        MOSUNNY   53  37  54 SW9       29.93R
FORT STOCKTON  CLOUDY    55  44  66 NW15      29.94R
GUADALUPE PASS NOT AVBL
MARFA          CLOUDY    52  45  76 NE6       29.97R
PECOS          LGT RAIN  52  47  83 CALM      29.93S
$$

DALLAS/FORT WORTH METROPLEX

CITY           SKY/WX    TMP DP  RH WIND       PRES   REMARKS
DFW AIRPORT    LGT RAIN  46  44  93 N18       29.95R FOG     WCI  39
FTW MEACHAM    LGT RAIN  49  45  86 N16       29.94S FOG
DAL-EXECUTIVE  LGT RAIN  49  48  97 N9        29.93R FOG
GRAND PRAIRIE  LGT RAIN  48  48 100 N12       29.96R
ADDISON        LGT RAIN  48  46  93 N13G21    29.96R FOG
MESQUITE       CLOUDY    46  46 100 N12       29.94R FOG
LANCASTER      LGT RAIN  49  47  95 N6        29.95R
$$

NORTH CENTRAL TEXAS

CITY           SKY/WX    TMP DP  RH WIND       PRES   REMARKS
SHRMAN/DENISON LGT RAIN  40  40 100 N15G22    30.01R WCI  32
GAINESVILLE    NOT AVBL
BRIDGEPORT     RAIN      44  44 100 N13       30.00S WCI  37
DENTON         LGT RAIN  44  42  93 N15       29.99R FOG     WCI  37
WAXAHACHIE     LGT RAIN  50  50 100 N9        29.94R
GRANBURY       DRIZZLE   51  49  95 N9        29.96R
$$

WESTERN NORTH TEXAS

CITY           SKY/WX    TMP DP  RH WIND       PRES   REMARKS
WICHITA FALLS  CLOUDY    33  29  85 N26G38    30.07R WCI  20
VERNON         CLOUDY    31  23  73 N20G31    30.17R WCI  18
BRECKENRIDGE   NOT AVBL
COMANCHE       LGT RAIN  55  55 100 CALM      29.94R
$$

CENTRAL AND SOUTH CENTRAL TEXAS

CITY           SKY/WX    TMP DP  RH WIND       PRES   REMARKS
AUSTIN/BERGSTM CLOUDY    63  63 100 CALM      29.85S FOG
WACO           LGT RAIN  55  55 100 N10       29.89R VSB 1/8
HILLSBORO      NOT AVBL
TEMPLE         CLOUDY    63  59  88 CALM      29.87S VSB 3/4
KILLEEN-GRAY   NOT AVBL
FORT HOOD      FOG       63  63 100 SE8       29.86R VSB 1
GEORGETOWN     CLOUDY    63  61  94 CALM      29.87R FOG
LAGO VISTA     DRZL/FOG  64  63  94 SE5       29.87S VSB 1/4
SAN MARCOS     FOG      N/A N/A N/A SE6       29.87R VSB 1/2
NEW BRAUNFELS  CLOUDY    67  65  93 S8        29.85R FOG
RANDOLPH AFB   NOT AVBL
SAN ANTONIO    FOG       67  64  90 S7        29.86R VSB 1
STINSON        CLOUDY    65  64  97 SE3       29.85R FOG
PLEASANTON     NOT AVBL
LA GRANGE      NOT AVBL
GIDDINGS       PTSUNNY   71  67  85 S12G18    29.89F HAZE
$$

EAST TEXAS

CITY           SKY/WX    TMP DP  RH WIND       PRES   REMARKS
PARIS          CLOUDY    43  39  87 N10       29.96R WCI  37
CLARKSVILLE    NOT AVBL
TYLER          LGT RAIN  57  55  93 N9        29.90R FOG
LONGVIEW       CLOUDY    66  65  96 CALM      29.87F FOG
PALESTINE      DRIZZLE   66  66 100 CALM      29.89S
NACOGDOCHES    CLOUDY    70  66  88 S9        29.91F
$$

TEXAS HILL COUNTRY AND EDWARDS PLATEAU

CITY           SKY/WX    TMP DP  RH WIND       PRES   REMARKS
LLANO          NOT AVBL
HORSESHOE BAY  CLOUDY   N/A N/A N/A CALM      29.86R FOG
KERRVILLE      FOG       61  60  96 CALM      29.87R VSB 3/4
FREDERICKSBRG  NOT AVBL
ROCKSPRINGS    NOT AVBL
HONDO          CLOUDY    65  63  93 S9        29.87R FOG
UVALDE         CLOUDY    62  62 100 S5        29.86R FOG
DEL RIO        CLOUDY    59  54  83 W9        29.88R
$$

SOUTHEAST TEXAS

CITY           SKY/WX    TMP DP  RH WIND       PRES   REMARKS
COLLEGE STN    CLOUDY    71  68  90 S15       29.87S
CALDWELL       NOT AVBL
CROCKETT       NOT AVBL
BRENHAM        PTSUNNY   74  70  86 S13       29.88S FOG
HUNTSVILLE     CLOUDY    72  67  84 S10       29.90R
CONROE         CLOUDY    72  66  81 S12       29.91R
HOUSTON BUSH   CLOUDY    74  67  78 S14G21    29.91S
HOUSTON HOBBY  PTSUNNY   74  67  78 S9        29.91R
PERLAND        PTSUNNY   75  67  76 S17       29.93R
WHARTON        CLOUDY    73  68  83 S14       29.90S
$$

THE UPPER TEXAS COAST

CITY           SKY/WX    TMP DP  RH WIND       PRES   REMARKS
ORANGE         CLOUDY    72  68  85 S12       29.96S
PORT ARTHUR    CLOUDY    75  67  76 S15G24    29.93S
GALVESTON      CLOUDY    68  68 100 SW7       29.93R FOG
ANGLETON       CLOUDY    73  68  84 S18       29.91R
BAY CITY       CLOUDY    76  71  84 S15       29.90S
$$

TEXAS COASTAL BEND, RIO GRANDE PLAINS DEEP SOUTH TEXAS

CITY           SKY/WX    TMP DP  RH WIND       PRES   REMARKS
VICTORIA       MOSUNNY   74  70  87 SE20      29.88R FOG
BEEVILLE       CLOUDY    71  69  95 S15       29.85R
ROCKPORT       CLOUDY    70  66  87 SE10      29.86S FOG
PORT ARANSAS   NOT AVBL
PORT LAVACA    CLOUDY    67  65  93 E6        29.89S FOG
CORPUS CHRISTI CLOUDY    70  68  93 S18       29.86R FOG
KINGSVILLE NAS CLOUDY    71  69  93 SE10      29.84R FOG
COTULLA        CLOUDY    64  62  93 CALM      29.85R FOG
LAREDO         LGT RAIN  61  61 100 CALM      29.87S FOG
BROWNSVILLE    CLOUDY    73  69  87 S18       29.86R
PORT ISABEL    CLOUDY    73  69  87 S20       29.84S FOG
HEBBRONVILLE   NOT AVBL
MCALLEN        CLOUDY    72  67  84 S13       29.85R
WESLACO        NOT AVBL
FALFURRIAS     CLOUDY    71  67  85 S13       29.84R
EDINBURG       CLOUDY    74  67  77 S13       29.85R
$$


USA.gov is the U.S. government's official web portal to all federal, state and local government web resources and services.